When you browse on this site, cookies collect data to enhance your experience and personalize the content and advertising you see.
Visit our Privacy Policy to learn more. By continuing to use the site, you agree to this use of cookies and data.
  • In Österreich
  • Länderverzeichnis
  • Für 7 Tage
  • Wassertemperatur
  • Wetterkarte
  • News
  • Widgets
  • user-avatar
    Anmelden

    Stündliche Wetter Hlushytsya

    Heute, 29 Januar, Mittwoch

    Zeit Temperatur Niederschläge Wind Luftdruck Luftfeuchtigkeit
    00:00 +1°C° 0 mm 3 m/S 738 mmHg 92%
    01:00 +1°C° 0 mm 3 m/S 737 mmHg 91%
    02:00 +1°C° 0 mm 3 m/S 737 mmHg 91%
    03:00 +1°C° 0 mm 3 m/S 736 mmHg 91%
    04:00 +1°C° 0 mm 3 m/S 736 mmHg 90%
    05:00 +1°C° 0 mm 3 m/S 735 mmHg 89%
    06:00 +1°C° 0.3 mm 3 m/S 735 mmHg 91%
    07:00 +2°C° 0.3 mm 2 m/S 735 mmHg 93%
    08:00 +1°C° 0.3 mm 2 m/S 735 mmHg 94%
    09:00 0°C° 1.6 mm 3 m/S 734 mmHg 95%
    10:00 -1°C° 1.6 mm 4 m/S 734 mmHg 96%
    11:00 -1°C° 1.6 mm 5 m/S 734 mmHg 97%
    12:00 0°C° 0.2 mm 5 m/S 735 mmHg 91%
    13:00 0°C° 0.2 mm 5 m/S 735 mmHg 85%
    14:00 +1°C° 0.2 mm 5 m/S 735 mmHg 79%
    15:00 +1°C° 0 mm 5 m/S 735 mmHg 78%
    16:00 0°C° 0 mm 5 m/S 735 mmHg 77%
    17:00 0°C° 0 mm 5 m/S 736 mmHg 76%
    18:00 0°C° 0 mm 5 m/S 736 mmHg 80%
    19:00 -1°C° 0 mm 5 m/S 736 mmHg 83%
    20:00 -1°C° 0 mm 5 m/S 736 mmHg 87%
    21:00 -1°C° 0.1 mm 5 m/S 736 mmHg 90%
    22:00 -1°C° 0.1 mm 5 m/S 736 mmHg 93%
    23:00 -1°C° 0.1 mm 5 m/S 736 mmHg 96%

    Morgen, 30 Januar, Donnerstag

    Zeit Temperatur Niederschläge Wind Luftdruck Luftfeuchtigkeit
    00:00 -2°C° 0.5 mm 6 m/S 736 mmHg 96%
    01:00 -2°C° 0.5 mm 6 m/S 737 mmHg 96%
    02:00 -2°C° 0.5 mm 6 m/S 737 mmHg 96%
    03:00 -2°C° 0.5 mm 6 m/S 737 mmHg 95%
    04:00 -2°C° 0.5 mm 6 m/S 737 mmHg 95%
    05:00 -2°C° 0.5 mm 6 m/S 737 mmHg 94%
    06:00 -2°C° 0.1 mm 7 m/S 737 mmHg 94%
    07:00 -2°C° 0.1 mm 7 m/S 738 mmHg 94%
    08:00 -2°C° 0.1 mm 7 m/S 738 mmHg 94%
    09:00 -2°C° 0.1 mm 7 m/S 738 mmHg 93%
    10:00 -1°C° 0.1 mm 7 m/S 738 mmHg 92%
    11:00 -1°C° 0.1 mm 7 m/S 739 mmHg 90%
    12:00 -1°C° 0.1 mm 7 m/S 739 mmHg 90%
    13:00 -1°C° 0.1 mm 7 m/S 739 mmHg 89%
    14:00 -1°C° 0.1 mm 7 m/S 740 mmHg 88%
    15:00 -1°C° 0.1 mm 6 m/S 740 mmHg 86%
    16:00 -1°C° 0.1 mm 6 m/S 740 mmHg 84%
    17:00 -1°C° 0.1 mm 6 m/S 740 mmHg 83%
    18:00 -1°C° 0 mm 6 m/S 740 mmHg 82%
    19:00 -1°C° 0 mm 5 m/S 740 mmHg 81%
    20:00 -1°C° 0 mm 5 m/S 741 mmHg 80%
    21:00 -1°C° 0 mm 5 m/S 740 mmHg 81%
    22:00 -1°C° 0 mm 5 m/S 740 mmHg 82%
    23:00 -1°C° 0 mm 5 m/S 740 mmHg 83%

    übermorgen, 31 Januar, Freitag

    Zeit Temperatur Niederschläge Wind Luftdruck Luftfeuchtigkeit
    00:00 -1°C° 0.1 mm 5 m/S 739 mmHg 88%
    01:00 -1°C° 0.1 mm 5 m/S 739 mmHg 92%
    02:00 0°C° 0.1 mm 5 m/S 739 mmHg 97%
    03:00 0°C° 0.3 mm 5 m/S 738 mmHg 96%
    04:00 0°C° 0.3 mm 5 m/S 738 mmHg 96%
    05:00 +1°C° 0.3 mm 5 m/S 737 mmHg 96%
    06:00 +1°C° 0.5 mm 4 m/S 737 mmHg 96%
    07:00 +1°C° 0.5 mm 4 m/S 736 mmHg 96%
    08:00 +1°C° 0.5 mm 4 m/S 736 mmHg 96%
    09:00 +1°C° 0.8 mm 4 m/S 736 mmHg 96%
    10:00 +1°C° 0.8 mm 4 m/S 736 mmHg 97%
    11:00 +1°C° 0.8 mm 4 m/S 736 mmHg 97%
    12:00 +2°C° 0.3 mm 3 m/S 736 mmHg 97%
    13:00 +2°C° 0.3 mm 3 m/S 736 mmHg 96%
    14:00 +2°C° 0.3 mm 3 m/S 736 mmHg 95%
    15:00 +2°C° 0.1 mm 3 m/S 736 mmHg 95%
    16:00 +2°C° 0.1 mm 3 m/S 737 mmHg 95%
    17:00 +2°C° 0.1 mm 3 m/S 737 mmHg 95%
    18:00 +2°C° 0 mm 3 m/S 738 mmHg 94%
    19:00 +3°C° 0 mm 2 m/S 739 mmHg 93%
    20:00 +3°C° 0 mm 2 m/S 740 mmHg 91%
    21:00 +2°C° 0 mm 2 m/S 740 mmHg 92%
    22:00 +2°C° 0 mm 2 m/S 741 mmHg 92%
    23:00 +2°C° 0 mm 2 m/S 741 mmHg 93%

    1 Februar, Samstag

    Zeit Temperatur Niederschläge Wind Luftdruck Luftfeuchtigkeit
    00:00 +2°C° 0 mm 2 m/S 741 mmHg 93%
    01:00 +1°C° 0 mm 2 m/S 742 mmHg 94%
    02:00 +1°C° 0 mm 2 m/S 742 mmHg 95%
    03:00 +2°C° 0 mm 2 m/S 742 mmHg 95%
    04:00 +2°C° 0 mm 2 m/S 742 mmHg 95%
    05:00 +2°C° 0 mm 2 m/S 742 mmHg 94%
    06:00 +2°C° 0.2 mm 2 m/S 742 mmHg 95%
    07:00 +3°C° 0.2 mm 2 m/S 742 mmHg 96%
    08:00 +3°C° 0.2 mm 2 m/S 742 mmHg 97%
    09:00 +2°C° 0.1 mm 3 m/S 742 mmHg 96%
    10:00 +3°C° 0.1 mm 3 m/S 742 mmHg 96%
    11:00 +3°C° 0.1 mm 3 m/S 742 mmHg 95%
    12:00 +4°C° 0 mm 3 m/S 742 mmHg 92%
    13:00 +5°C° 0 mm 3 m/S 742 mmHg 89%
    14:00 +5°C° 0 mm 4 m/S 742 mmHg 86%
    15:00 +5°C° 0.2 mm 4 m/S 741 mmHg 89%
    16:00 +5°C° 0.2 mm 4 m/S 741 mmHg 92%
    17:00 +4°C° 0.2 mm 4 m/S 741 mmHg 95%
    18:00 +5°C° 0.2 mm 4 m/S 741 mmHg 94%
    19:00 +5°C° 0.2 mm 4 m/S 740 mmHg 93%
    20:00 +5°C° 0.2 mm 4 m/S 740 mmHg 92%
    21:00 +5°C° 0.4 mm 4 m/S 740 mmHg 92%
    22:00 +5°C° 0.4 mm 4 m/S 739 mmHg 93%
    23:00 +5°C° 0.4 mm 4 m/S 738 mmHg 93%

    2 Februar, Sonntag

    Zeit Temperatur Niederschläge Wind Luftdruck Luftfeuchtigkeit
    00:00 +5°C° 0.3 mm 4 m/S 738 mmHg 94%
    01:00 +5°C° 0.3 mm 4 m/S 738 mmHg 94%
    02:00 +5°C° 0.3 mm 4 m/S 737 mmHg 94%
    03:00 +6°C° 0.2 mm 4 m/S 737 mmHg 94%
    04:00 +6°C° 0.2 mm 4 m/S 736 mmHg 94%
    05:00 +6°C° 0.2 mm 4 m/S 736 mmHg 94%
    06:00 +6°C° 0.3 mm 4 m/S 736 mmHg 92%
    07:00 +6°C° 0.3 mm 4 m/S 735 mmHg 91%
    08:00 +6°C° 0.3 mm 4 m/S 735 mmHg 90%
    09:00 +6°C° 0.1 mm 5 m/S 735 mmHg 89%
    10:00 +7°C° 0.1 mm 6 m/S 736 mmHg 87%
    11:00 +7°C° 0.1 mm 6 m/S 736 mmHg 85%
    12:00 +5°C° 0.1 mm 7 m/S 737 mmHg 84%
    13:00 +5°C° 0.1 mm 8 m/S 738 mmHg 82%
    14:00 +4°C° 0.1 mm 8 m/S 738 mmHg 80%
    15:00 +4°C° 0 mm 7 m/S 739 mmHg 78%
    16:00 +4°C° 0 mm 7 m/S 740 mmHg 76%
    17:00 +4°C° 0 mm 6 m/S 740 mmHg 73%
    18:00 +4°C° 0 mm 6 m/S 741 mmHg 77%
    19:00 +4°C° 0 mm 6 m/S 741 mmHg 80%
    20:00 +4°C° 0 mm 6 m/S 741 mmHg 84%
    21:00 +4°C° 0.1 mm 6 m/S 741 mmHg 83%
    22:00 +4°C° 0.1 mm 6 m/S 741 mmHg 82%
    23:00 +3°C° 0.1 mm 7 m/S 741 mmHg 81%

    3 Februar, Montag

    Zeit Temperatur Niederschläge Wind Luftdruck Luftfeuchtigkeit
    00:00 +3°C° 0 mm 6 m/S 742 mmHg 79%
    01:00 +3°C° 0 mm 6 m/S 742 mmHg 77%
    02:00 +2°C° 0 mm 6 m/S 742 mmHg 76%
    03:00 +2°C° 0.1 mm 6 m/S 742 mmHg 79%
    04:00 +2°C° 0.1 mm 6 m/S 742 mmHg 83%
    05:00 +1°C° 0.1 mm 6 m/S 742 mmHg 87%
    06:00 +2°C° 0.1 mm 5 m/S 742 mmHg 86%
    07:00 +2°C° 0.1 mm 5 m/S 742 mmHg 85%
    08:00 +2°C° 0.1 mm 5 m/S 742 mmHg 84%
    09:00 +2°C° 0 mm 5 m/S 743 mmHg 83%
    10:00 +2°C° 0 mm 5 m/S 743 mmHg 81%
    11:00 +2°C° 0 mm 5 m/S 743 mmHg 79%
    12:00 +3°C° 0 mm 4 m/S 743 mmHg 81%
    13:00 +3°C° 0 mm 4 m/S 742 mmHg 84%
    14:00 +4°C° 0 mm 4 m/S 742 mmHg 86%
    15:00 +3°C° 0 mm 4 m/S 742 mmHg 86%
    16:00 +3°C° 0 mm 3 m/S 742 mmHg 86%
    17:00 +3°C° 0 mm 3 m/S 742 mmHg 86%
    18:00 +4°C° 0 mm 2 m/S 743 mmHg 87%
    19:00 +4°C° 0 mm 2 m/S 743 mmHg 89%
    20:00 +3°C° 0 mm 2 m/S 743 mmHg 91%
    21:00 +3°C° 0 mm 2 m/S 743 mmHg 92%
    22:00 +3°C° 0 mm 2 m/S 743 mmHg 93%
    23:00 +3°C° 0 mm 2 m/S 744 mmHg 93%
    Mehr zeigen